[[{"header":{"parameterUnit":"m.s-1","parameterCategory":2,"la1":30.2991,"la2":30.254,"lo1":-89.0895,"lo2":-89.0444,"dy":0.0017,"dx":0.0017,"nx":28,"ny":28,"refTime":"2025-06-10T21:00:00:Z","depth":"0","parameterNumber":2,"parameterNumberName":"U-component_of_CURRENTS"},"data":[0,0,0,0,0,0,0,0,0,0,0,0,0,0,0,0,0,0,0,0,0,0,0,0,0,0,0,0,0,0,0,0,0,0,0,0,0,0,0,0,0,0,0,0,0,0,0,0,0,0,0,0,0,0,0,0,0,0,-0.4906,-0.4906,0,-0.4921,-0.4922,-0.4922,-0.4888,-0.4887,-0.4885,-0.4884,-0.4785,-0.4784,-0.4783,0,0,0,0,0,0,0,0,0,0,0,0,0,-0.4823,-0.4826,-0.4906,-0.4906,-0.4905,-0.4921,-0.4922,-0.4922,-0.4889,-0.4887,-0.4885,-0.4883,-0.4786,-0.4784,-0.4783,0,0,0,0,0,0,0,0,0,0,0,0,0,-0.4856,-0.4826,-0.4906,-0.4886,-0.4884,-0.4921,-0.4922,-0.4923,-0.4889,-0.4887,-0.4884,-0.4882,-0.4786,-0.4784,-0.4783,-0.482,0,0,-0.4777,-0.4777,0,0,0,0,0,0,0,0,-0.4855,-0.486,-0.489,-0.4888,-0.4885,-0.4895,-0.4856,-0.4881,-0.489,-0.4893,-0.4884,-0.4881,-0.481,-0.4806,-0.4824,-0.4816,-0.4811,-0.4777,-0.4776,-0.4776,-0.4775,0,0,0,0,0,0,0,-0.4852,-0.4859,-0.4918,-0.4889,-0.4887,-0.4867,-0.487,-0.4861,-0.4867,-0.4893,-0.4889,-0.4882,-0.4808,-0.4826,-0.4821,-0.481,-0.4777,-0.4776,-0.4775,-0.4774,-0.4627,-0.4624,0,0,0,0,0,0,-0.4844,-0.4858,-0.4917,-0.4918,-0.4857,-0.4871,-0.4874,-0.4899,-0.4869,-0.4862,-0.4884,-0.4881,-0.483,-0.4823,-0.4817,-0.4622,-0.4776,-0.4774,-0.4773,-0.463,-0.4626,-0.4623,0,0,0,0,0,0,-0.4843,-0.485,-0.4916,-0.4881,-0.4887,-0.4874,-0.4903,-0.4901,-0.4893,-0.4863,-0.4854,-0.4875,-0.4827,-0.4819,-0.4762,-0.4626,-0.4773,-0.4772,-0.4633,-0.4629,-0.4625,-0.4383,0,0,0,0,0,0,-0.4841,-0.4851,-0.4872,-0.4882,-0.4889,-0.4835,-0.4904,-0.4902,-0.4891,-0.4886,-0.4853,-0.4843,-0.4825,-0.4765,-0.4761,-0.4626,-0.477,-0.4637,-0.4631,-0.4626,-0.4394,-0.4371,-0.435,0,0,0,0,0,-0.4839,-0.4817,-0.4874,-0.4881,-0.4918,-0.4829,-0.4827,-0.4816,-0.4893,-0.482,-0.4846,-0.4843,-0.4726,-0.4762,-0.4758,-0.4619,-0.464,-0.4633,-0.4627,-0.4404,-0.4375,-0.4351,0,0,0,0,0,0,-0.4786,-0.4813,-0.4874,-0.4869,-0.4825,-0.4819,-0.4769,-0.4817,-0.4797,-0.4812,-0.4829,-0.4816,-0.4687,-0.4729,-0.477,-0.4568,-0.4673,-0.4666,-0.4506,-0.4479,-0.4457,-0.4433,-0.4769,0,0,0,0,0,-0.48,-0.4796,-0.4801,-0.4794,-0.4767,-0.4797,-0.4779,-0.4777,-0.4763,-0.4755,-0.474,-0.4732,-0.4668,-0.4638,-0.4581,-0.4516,-0.4548,-0.4423,-0.4401,-0.4381,-0.4363,-0.4364,-0.4339,-0.4602,-0.4602,-0.4602,0,0,-0.4773,-0.4797,-0.4793,-0.4783,-0.4769,-0.4663,-0.4774,-0.4709,-0.4632,-0.4748,-0.4639,-0.464,-0.4632,-0.4501,-0.4451,-0.4516,-0.4309,-0.4373,-0.4356,-0.4348,-0.4354,-0.4328,-0.4306,-0.4598,-0.4598,-0.4599,0,0,-0.4631,-0.474,-0.4639,-0.4601,-0.4561,-0.4571,-0.4547,-0.4527,-0.4513,-0.4459,-0.4483,-0.4423,-0.4383,-0.4302,-0.4277,-0.4126,-0.4178,-0.4113,-0.3989,-0.3988,-0.3966,-0.3948,-0.3887,-0.3865,-0.412,-0.4119,-0.4119,0,-0.4583,-0.4514,-0.4583,-0.4459,-0.4422,-0.4514,-0.4375,-0.4362,-0.4329,-0.4329,-0.4374,-0.4306,-0.4267,-0.4119,-0.4037,-0.4058,-0.4087,-0.4079,-0.3956,-0.394,-0.3925,-0.3868,-0.3847,-0.4107,-0.4108,-0.411,-0.4111,0,-0.4339,-0.4292,-0.4217,-0.4125,-0.4087,-0.3985,-0.3986,-0.3962,-0.4032,-0.4049,-0.3961,-0.3953,-0.3928,-0.3872,-0.3902,-0.375,-0.3807,-0.391,-0.4016,-0.3883,-0.3831,-0.3813,-0.4089,-0.4093,-0.4097,-0.41,0,0,-0.4171,-0.4063,-0.4038,-0.3983,-0.3924,-0.3872,-0.3766,-0.3708,-0.3716,-0.3682,-0.3671,-0.3516,-0.3607,-0.3585,-0.3603,-0.3582,-0.3443,-0.37,-0.3706,-0.3623,-0.3415,-0.3317,-0.329,-0.3561,-0.3558,-0.3556,-0.3396,0,-0.3938,-0.3697,-0.3713,-0.3515,-0.3395,-0.349,-0.3416,-0.3413,-0.3471,-0.3484,-0.3495,-0.3474,-0.347,-0.3497,-0.3446,-0.3495,-0.34,-0.3475,-0.3573,-0.3573,-0.3491,-0.3267,-0.3124,-0.2961,-0.338,-0.3377,-0.3375,0,-0.3637,-0.356,-0.3311,-0.329,-0.3256,-0.3176,-0.3204,-0.3155,-0.3208,-0.3276,-0.3278,-0.336,-0.327,-0.3355,-0.3262,-0.3338,-0.3312,-0.3335,-0.3333,-0.3319,-0.3442,-0.3179,-0.2915,-0.2918,-0.3349,-0.3352,-0.3353,0,-0.344,-0.3279,-0.3113,-0.3075,-0.3036,-0.3007,-0.3029,-0.3078,-0.3117,-0.3165,-0.3252,-0.3198,-0.3231,-0.3202,-0.3202,-0.3263,-0.3155,-0.3265,-0.3101,-0.3095,-0.3024,-0.3015,-0.2762,-0.3132,-0.3133,-0.3133,-0.3134,0,-0.3154,-0.3037,-0.3028,-0.2926,-0.2863,-0.2893,-0.2877,-0.2915,-0.3021,-0.3028,-0.3143,-0.3132,-0.3216,-0.3195,-0.3169,-0.3049,-0.3105,-0.2996,-0.3026,-0.2928,-0.2913,-0.2965,-0.3028,-0.3127,-0.3129,-0.313,-0.3131,0,-0.2903,-0.2864,-0.2718,-0.2708,-0.2727,-0.2695,-0.2823,-0.2853,-0.2955,-0.2981,-0.3005,-0.31,-0.3039,-0.3078,-0.3037,-0.2994,-0.2852,-0.2843,-0.2681,-0.2691,-0.2558,-0.2615,-0.2412,-0.2349,-0.2632,-0.2629,-0.2626,0,-0.2748,-0.2606,-0.2579,-0.2565,-0.2555,-0.2577,-0.2623,-0.2775,-0.2835,-0.2889,-0.2895,-0.2896,-0.2788,-0.2721,-0.268,-0.2579,-0.2642,-0.2413,-0.2461,-0.2435,-0.2525,-0.2585,-0.2553,-0.225,-0.2244,-0.2239,-0.2235,0,-0.2488,-0.2464,-0.2384,-0.2354,-0.2377,-0.2424,-0.2498,-0.2527,-0.2651,-0.2633,-0.2519,-0.2428,-0.2419,-0.2274,-0.2259,-0.2193,-0.2362,-0.2307,-0.2337,-0.2196,-0.2191,-0.2186,-0.2456,-0.2192,-0.2196,-0.22,-0.2202,-0.2204,-0.2353,-0.2259,-0.2166,-0.2139,-0.2178,-0.2175,-0.2094,-0.2167,-0.2108,-0.1942,-0.2015,-0.1741,-0.1957,-0.1899,-0.1867,-0.1869,-0.1972,-0.1861,-0.1922,-0.1979,-0.1919,-0.204,-0.1803,-0.1805,-0.1806,-0.1808,-0.1809,0,-0.219,-0.2073,-0.1991,-0.1914,-0.1848,-0.1957,-0.1945,-0.1803,-0.1548,-0.1436,-0.1211,-0.1119,-0.118,-0.141,-0.1577,-0.1535,-0.1539,-0.1547,-0.1612,-0.1594,-0.1722,-0.1709,-0.1371,-0.1371,-0.1371,-0.1371,-0.1371,-0.1371,-0.2078,-0.1893,-0.1813,-0.1594,-0.1546,-0.1351,-0.1246,-0.105,-0.0915,-0.0514,-0.0312,-0.029,-0.0764,-0.1312,-0.1479,-0.1429,-0.1457,-0.1379,-0.1467,-0.1603,-0.1639,-0.1674,-0.1672,-0.1332,-0.1332,-0.1262,-0.1262,-0.1262]},{"header":{"parameterUnit":"m.s-1","parameterCategory":2,"la1":30.2991,"la2":30.254,"lo1":-89.0895,"lo2":-89.0444,"dy":0.0017,"dx":0.0017,"nx":28,"ny":28,"refTime":"2025-06-10T21:00:00:Z","depth":"0","parameterNumber":3,"parameterNumberName":"V-component_of_CURRENTS"},"data":[0,0,0,0,0,0,0,0,0,0,0,0,0,0,0,0,0,0,0,0,0,0,0,0,0,0,0,0,0,0,0,0,0,0,0,0,0,0,0,0,0,0,0,0,0,0,0,0,0,0,0,0,0,0,0,0,0,0,-0.0195,-0.0192,0,0.012,0.0124,0.0128,0.0305,0.0305,0.0305,0.0306,0.0738,0.0749,0.0761,0,0,0,0,0,0,0,0,0,0,0,0,0,-0.045,-0.0447,-0.0195,-0.0192,-0.0188,0.012,0.0124,0.0129,0.0305,0.0305,0.0305,0.0306,0.0735,0.0748,0.0762,0,0,0,0,0,0,0,0,0,0,0,0,0,-0.0254,-0.0446,-0.0196,-0.0066,-0.0052,0.0119,0.0125,0.013,0.0305,0.0305,0.0305,0.0306,0.073,0.0747,0.0764,0.0863,0,0,0.0816,0.0823,0,0,0,0,0,0,0,0,-0.0266,-0.0245,-0.0089,-0.0075,-0.0058,0.017,0.0193,0.038,0.0305,0.0174,0.0306,0.0306,0.0557,0.0588,0.065,0.0883,0.0902,0.0817,0.0827,0.0835,0.0839,0,0,0,0,0,0,0,-0.028,-0.0256,-0.0066,-0.0085,-0.0066,0.0043,0.007,0.023,0.0365,0.0185,0.0198,0.0226,0.0566,0.0633,0.0662,0.0908,0.0817,0.0832,0.0842,0.0849,0.1213,0.1212,0,0,0,0,0,0,-0.0337,-0.027,-0.0076,-0.0057,-0.0168,0.0046,0.0076,0.01,0.0361,0.0399,0.0226,0.0233,0.0604,0.0642,0.0678,0.0727,0.0835,0.085,0.086,0.1213,0.1212,0.1212,0,0,0,0,0,0,-0.0344,-0.0323,-0.0089,-0.0159,-0.0122,0.0048,0.0075,0.0106,0.0166,0.039,0.0431,0.0252,0.0606,0.0654,0.0807,0.0748,0.0858,0.0874,0.1214,0.1213,0.1212,0.088,0,0,0,0,0,0,-0.0352,-0.0327,-0.0332,-0.0164,-0.0121,-0.0029,0.0075,0.0112,0.0182,0.0195,0.0426,0.0467,0.061,0.0781,0.0824,0.0774,0.0887,0.1214,0.1213,0.1212,0.0891,0.0868,0.0847,0,0,0,0,0,-0.0363,-0.0371,-0.0334,-0.0311,-0.0132,-0.0031,0.0,0.0128,0.0181,0.0187,0.0355,0.046,0.0804,0.0795,0.0846,0.0798,0.1215,0.1214,0.1212,0.0901,0.0872,0.0848,0,0,0,0,0,0,-0.049,-0.0349,-0.0306,-0.0274,-0.0183,-0.0004,0.0024,0.0109,0.0248,0.0265,0.0475,0.0528,0.0628,0.0779,0.0763,0.0905,0.1019,0.1027,0.0765,0.074,0.0718,0.0713,0.0901,0,0,0,0,0,-0.0524,-0.0491,-0.0355,-0.0337,-0.0298,-0.0144,-0.0085,-0.0007,0.0139,0.02,0.036,0.0534,0.0667,0.0752,0.0899,0.0998,0.1123,0.0999,0.0977,0.0957,0.099,0.1119,0.111,0.1208,0.1208,0.1208,0,0,-0.0574,-0.0489,-0.0475,-0.0362,-0.0273,-0.0222,-0.0107,-0.0043,0.0002,0.0228,0.0336,0.0465,0.0677,0.0765,0.0824,0.0883,0.0979,0.0955,0.0935,0.0982,0.1117,0.1107,0.1099,0.1207,0.1207,0.1207,0,0,-0.064,-0.0583,-0.0571,-0.0503,-0.0393,-0.0299,-0.0297,-0.014,-0.0076,0.0044,0.019,0.029,0.053,0.0638,0.0734,0.0695,0.0851,0.0725,0.0619,0.0739,0.0731,0.0727,0.0785,0.0789,0.0719,0.0718,0.0718,0,-0.0712,-0.0658,-0.0559,-0.0525,-0.0476,-0.0349,-0.0329,-0.0246,-0.0065,-0.001,0.0039,0.0336,0.0472,0.059,0.0554,0.0639,0.0727,0.0681,0.0704,0.0703,0.0704,0.0767,0.0775,0.0702,0.0704,0.0706,0.0707,0,-0.0742,-0.0711,-0.0704,-0.0615,-0.0565,-0.0532,-0.0417,-0.0368,-0.0277,-0.0171,-0.0051,0.0128,0.0308,0.0324,0.0435,0.0489,0.0549,0.0641,0.0749,0.0673,0.0744,0.0758,0.0679,0.0685,0.069,0.0694,0,0,-0.0862,-0.0749,-0.0745,-0.0717,-0.0608,-0.0565,-0.0528,-0.0431,-0.0383,-0.0259,-0.0179,-0.0023,0.0062,0.0177,0.0289,0.0379,0.039,0.0491,0.0505,0.051,0.0616,0.0637,0.0656,0.0481,0.0484,0.0486,0.0629,0,-0.0912,-0.0876,-0.0802,-0.0783,-0.0753,-0.0655,-0.0621,-0.0532,-0.0428,-0.0329,-0.019,-0.0059,0.0009,0.0076,0.0158,0.0388,0.043,0.0342,0.0731,0.0742,0.0739,0.0676,0.0728,0.0862,0.0645,0.0647,0.0649,0,-0.0944,-0.091,-0.09,-0.0836,-0.0818,-0.0798,-0.0714,-0.0664,-0.0524,-0.0443,-0.0325,-0.018,-0.0036,0.0027,0.0318,0.0263,0.0396,0.0541,0.0552,0.0722,0.0794,0.0931,0.0899,0.1052,0.0673,0.0671,0.067,0,-0.1023,-0.0975,-0.0968,-0.0944,-0.0861,-0.0853,-0.0812,-0.0698,-0.0637,-0.0502,-0.0414,-0.024,-0.0089,0.0099,0.0371,0.0359,0.0695,0.0729,0.085,0.0851,0.1058,0.1073,0.1206,0.0886,0.0886,0.0885,0.0885,0,-0.1069,-0.1062,-0.1008,-0.0997,-0.1005,-0.0927,-0.0906,-0.0839,-0.0719,-0.0576,-0.0475,-0.0309,-0.005,0.0179,0.036,0.0661,0.0688,0.0835,0.0905,0.0933,0.0935,0.1216,0.1263,0.0891,0.089,0.0889,0.0888,0,-0.1127,-0.1089,-0.1082,-0.1037,-0.1032,-0.1036,-0.097,-0.0929,-0.0811,-0.0617,-0.0561,-0.032,-0.0009,0.0211,0.0567,0.0692,0.1048,0.102,0.0995,0.1058,0.1285,0.1311,0.1561,0.1666,0.1174,0.1175,0.1177,0,-0.1132,-0.1136,-0.1128,-0.1141,-0.1121,-0.1116,-0.1096,-0.0995,-0.0855,-0.0558,-0.0405,-0.015,0.0149,0.0565,0.0787,0.1052,0.1156,0.1231,0.1212,0.1305,0.1388,0.1395,0.1465,0.1324,0.1327,0.1329,0.1331,0,-0.1145,-0.1155,-0.1157,-0.1192,-0.1191,-0.1148,-0.1038,-0.0932,-0.0686,-0.0468,-0.0026,0.0197,0.0522,0.0852,0.1043,0.1198,0.1342,0.1278,0.1434,0.1559,0.1531,0.1662,0.1167,0.1348,0.1347,0.1345,0.1344,0.1344,-0.1132,-0.117,-0.1181,-0.12,-0.1208,-0.1057,-0.0915,-0.0713,-0.0422,0.007,0.0294,0.0716,0.0994,0.1277,0.1407,0.1574,0.1514,0.1681,0.1711,0.1714,0.1803,0.1292,0.1516,0.1515,0.1514,0.1514,0.1513,0,-0.1016,-0.1096,-0.117,-0.1119,-0.1049,-0.1049,-0.0774,-0.0533,-0.0082,0.0299,0.0764,0.1321,0.1552,0.1688,0.1852,0.2017,0.2051,0.2094,0.2149,0.2208,0.1838,0.1833,0.2066,0.2065,0.2065,0.2065,0.2065,0.2065,-0.0941,-0.0971,-0.1032,-0.0914,-0.087,-0.0596,-0.037,-0.0048,0.0293,0.0904,0.131,0.1648,0.1879,0.2191,0.2386,0.2409,0.2584,0.254,0.2631,0.2392,0.2356,0.2322,0.2331,0.2665,0.2665,0.3022,0.3026,0.3028]}],[{"header":{"parameterUnit":"m.s-1","parameterCategory":2,"la1":30.2991,"la2":30.254,"lo1":-89.0895,"lo2":-89.0444,"dy":0.0017,"dx":0.0017,"nx":28,"ny":28,"refTime":"2025-06-10T21:00:00:Z","depth":"2","parameterNumber":2,"parameterNumberName":"U-component_of_CURRENTS"},"data":[0,0,0,0,0,0,0,0,0,0,0,0,0,0,0,0,0,0,0,0,0,0,0,0,0,0,0,0,0,0,0,0,0,0,0,0,0,0,0,0,0,0,0,0,0,0,0,0,0,0,0,0,0,0,0,0,0,0,-0.3017,-0.3018,0,-0.3138,-0.3138,-0.3139,-0.3113,-0.3111,-0.311,-0.3108,-0.3161,-0.3164,-0.3167,0,0,0,0,0,0,0,0,0,0,0,0,0,-0.2829,-0.2832,-0.3016,-0.3019,-0.3021,-0.3137,-0.3138,-0.3139,-0.3113,-0.3111,-0.3109,-0.3107,-0.316,-0.3164,-0.3167,0,0,0,0,0,0,0,0,0,0,0,0,0,-0.292,-0.2833,-0.3016,-0.3027,-0.3029,-0.3137,-0.3138,-0.314,-0.3114,-0.3111,-0.3109,-0.3106,-0.3159,-0.3164,-0.3168,-0.3244,0,0,-0.3181,-0.3183,0,0,0,0,0,0,0,0,-0.2915,-0.2926,-0.3023,-0.3026,-0.303,-0.3114,-0.3093,-0.3174,-0.3114,-0.3074,-0.3108,-0.3105,-0.3146,-0.3151,-0.317,-0.3247,-0.3249,-0.3182,-0.3185,-0.3186,-0.3188,0,0,0,0,0,0,0,-0.2908,-0.2921,-0.3057,-0.3026,-0.303,-0.3049,-0.3058,-0.3108,-0.3116,-0.3078,-0.3078,-0.3103,-0.3145,-0.3166,-0.3171,-0.325,-0.3182,-0.3186,-0.3188,-0.319,-0.3318,-0.3318,0,0,0,0,0,0,-0.2907,-0.2915,-0.3054,-0.3062,-0.2973,-0.3055,-0.3064,-0.3083,-0.3117,-0.3122,-0.3105,-0.3101,-0.316,-0.3166,-0.3173,-0.3156,-0.3186,-0.3191,-0.3193,-0.3317,-0.3318,-0.3319,0,0,0,0,0,0,-0.2903,-0.2918,-0.3049,-0.2997,-0.3015,-0.3061,-0.3083,-0.3087,-0.3117,-0.3139,-0.3141,-0.3131,-0.3158,-0.3167,-0.323,-0.3162,-0.3192,-0.3197,-0.3316,-0.3317,-0.3318,-0.3193,0,0,0,0,0,0,-0.2896,-0.2916,-0.2911,-0.2997,-0.3019,-0.31,-0.3086,-0.3092,-0.3139,-0.3135,-0.3163,-0.3164,-0.3157,-0.3223,-0.3234,-0.3169,-0.32,-0.3315,-0.3317,-0.3318,-0.3196,-0.319,-0.3184,0,0,0,0,0,-0.2889,-0.2902,-0.291,-0.2926,-0.3017,-0.3102,-0.3114,-0.3133,-0.3143,-0.3152,-0.3187,-0.3164,-0.3237,-0.323,-0.3242,-0.3175,-0.3314,-0.3316,-0.3318,-0.3199,-0.3191,-0.3185,0,0,0,0,0,0,-0.2835,-0.2904,-0.2914,-0.2949,-0.3014,-0.3099,-0.3122,-0.3154,-0.3194,-0.3194,-0.3209,-0.3214,-0.322,-0.3259,-0.325,-0.3223,-0.3259,-0.3264,-0.3165,-0.3158,-0.3152,-0.3128,-0.3204,0,0,0,0,0,-0.2822,-0.2833,-0.2922,-0.295,-0.2989,-0.3064,-0.3099,-0.3125,-0.3185,-0.32,-0.3226,-0.3248,-0.3241,-0.3252,-0.3266,-0.3296,-0.3302,-0.3256,-0.325,-0.3244,-0.3237,-0.3227,-0.3217,-0.3324,-0.3324,-0.3324,0,0,-0.2805,-0.2851,-0.2854,-0.2936,-0.2994,-0.302,-0.3077,-0.3147,-0.3137,-0.3204,-0.321,-0.3238,-0.325,-0.3237,-0.3243,-0.3259,-0.3215,-0.3246,-0.324,-0.3237,-0.3227,-0.3216,-0.3206,-0.3325,-0.3325,-0.3325,0,0,-0.2789,-0.2834,-0.2834,-0.2881,-0.297,-0.3012,-0.3038,-0.3135,-0.3141,-0.3175,-0.319,-0.3201,-0.3231,-0.3205,-0.3193,-0.3188,-0.3182,-0.3192,-0.3136,-0.3124,-0.3114,-0.3105,-0.3071,-0.306,-0.3188,-0.3188,-0.3188,0,-0.2761,-0.2782,-0.2852,-0.2872,-0.2907,-0.3004,-0.3023,-0.3041,-0.3133,-0.3154,-0.3152,-0.3186,-0.3186,-0.3153,-0.3122,-0.3159,-0.3168,-0.3146,-0.3109,-0.3101,-0.3094,-0.3062,-0.3051,-0.3182,-0.3183,-0.3184,-0.3184,0,-0.2736,-0.2754,-0.278,-0.2808,-0.2851,-0.2902,-0.2951,-0.2988,-0.3016,-0.3039,-0.3047,-0.3063,-0.3086,-0.306,-0.3072,-0.3027,-0.3053,-0.3093,-0.311,-0.3074,-0.3045,-0.3035,-0.3174,-0.3176,-0.3178,-0.3179,0,0,-0.2662,-0.274,-0.2742,-0.2759,-0.283,-0.2876,-0.287,-0.2916,-0.293,-0.2949,-0.2955,-0.2907,-0.2962,-0.2958,-0.2984,-0.2956,-0.2877,-0.3001,-0.3003,-0.2934,-0.2844,-0.2744,-0.2725,-0.2921,-0.292,-0.2919,-0.2831,0,-0.2621,-0.2649,-0.269,-0.2701,-0.273,-0.2805,-0.2797,-0.284,-0.2872,-0.29,-0.2896,-0.2905,-0.2905,-0.2925,-0.2891,-0.2911,-0.2856,-0.2896,-0.292,-0.2919,-0.2807,-0.2712,-0.2517,-0.2413,-0.2823,-0.2821,-0.282,0,-0.2556,-0.2596,-0.2611,-0.268,-0.2702,-0.2702,-0.2763,-0.2773,-0.2817,-0.2846,-0.2863,-0.2897,-0.2867,-0.2873,-0.2825,-0.2865,-0.2832,-0.2819,-0.2817,-0.2762,-0.2802,-0.2526,-0.2382,-0.2806,-0.2807,-0.2808,-0.2809,0,-0.2471,-0.2531,-0.2549,-0.2567,-0.2648,-0.2662,-0.2702,-0.2756,-0.2781,-0.2828,-0.2851,-0.2856,-0.2848,-0.2826,-0.2787,-0.2821,-0.2725,-0.2776,-0.2638,-0.2631,-0.2486,-0.2468,-0.2699,-0.2699,-0.2699,-0.27,-0.27,0,-0.2403,-0.2413,-0.2513,-0.2517,-0.254,-0.2615,-0.2638,-0.2685,-0.2748,-0.2753,-0.2824,-0.2806,-0.2836,-0.2799,-0.2774,-0.2658,-0.2708,-0.2589,-0.2588,-0.2437,-0.2416,-0.2797,-0.281,-0.2696,-0.2697,-0.2698,-0.2698,0,-0.2293,-0.236,-0.238,-0.2469,-0.2494,-0.2506,-0.2596,-0.261,-0.269,-0.2698,-0.2711,-0.2758,-0.2697,-0.2698,-0.2646,-0.2609,-0.2539,-0.2479,-0.2284,-0.226,-0.2459,-0.2468,-0.2323,-0.2319,-0.2315,-0.2311,-0.2309,0,-0.2233,-0.2236,-0.2322,-0.2326,-0.236,-0.2406,-0.2428,-0.2548,-0.2563,-0.2633,-0.2608,-0.2595,-0.2523,-0.2425,-0.2346,-0.2257,-0.2379,-0.2058,-0.2065,-0.2399,-0.2414,-0.2429,-0.2442,-0.182,-0.1814,-0.1808,-0.1804,0,-0.2107,-0.2142,-0.2165,-0.2188,-0.2208,-0.2245,-0.2288,-0.2301,-0.241,-0.2435,-0.241,-0.2372,-0.2259,-0.2071,-0.1977,-0.1915,-0.2069,-0.1945,-0.2323,-0.1954,-0.1919,-0.1938,-0.1967,-0.1757,-0.1762,-0.1765,-0.1768,-0.1769,-0.1986,-0.1976,-0.2005,-0.2013,-0.2041,-0.2038,-0.2003,-0.2064,-0.2076,-0.2058,-0.2145,-0.2031,-0.1984,-0.1715,-0.1616,-0.1554,-0.1699,-0.1667,-0.1685,-0.1709,-0.1674,-0.1636,-0.1411,-0.1414,-0.1416,-0.1418,-0.142,0,-0.1816,-0.1829,-0.1825,-0.1819,-0.1777,-0.1861,-0.1862,-0.1799,-0.1742,-0.1773,-0.1751,-0.1557,-0.1411,-0.1376,-0.1181,-0.1156,-0.1172,-0.1138,-0.1165,-0.121,-0.1251,-0.1196,-0.0805,-0.0804,-0.0802,-0.0801,0,0,-0.172,-0.1669,-0.1682,-0.1555,-0.1544,-0.1434,-0.1398,-0.1349,-0.1329,-0.1255,-0.1219,-0.1323,-0.1313,-0.1066,-0.0999,-0.0864,-0.1034,-0.082,-0.1305,-0.1377,-0.1416,-0.1534,-0.1496,0,0,0,0,0]},{"header":{"parameterUnit":"m.s-1","parameterCategory":2,"la1":30.2991,"la2":30.254,"lo1":-89.0895,"lo2":-89.0444,"dy":0.0017,"dx":0.0017,"nx":28,"ny":28,"refTime":"2025-06-10T21:00:00:Z","depth":"2","parameterNumber":3,"parameterNumberName":"V-component_of_CURRENTS"},"data":[0,0,0,0,0,0,0,0,0,0,0,0,0,0,0,0,0,0,0,0,0,0,0,0,0,0,0,0,0,0,0,0,0,0,0,0,0,0,0,0,0,0,0,0,0,0,0,0,0,0,0,0,0,0,0,0,0,0,-0.0537,-0.0535,0,-0.0357,-0.0356,-0.0354,-0.0255,-0.0254,-0.0254,-0.0253,0.0046,0.0053,0.006,0,0,0,0,0,0,0,0,0,0,0,0,0,-0.0703,-0.0701,-0.0537,-0.0535,-0.0532,-0.0358,-0.0356,-0.0353,-0.0255,-0.0254,-0.0253,-0.0253,0.0043,0.0052,0.0061,0,0,0,0,0,0,0,0,0,0,0,0,0,-0.0591,-0.0701,-0.0538,-0.046,-0.0451,-0.0358,-0.0355,-0.0353,-0.0255,-0.0254,-0.0253,-0.0252,0.004,0.0051,0.0062,0.0114,0,0,0.0096,0.0101,0,0,0,0,0,0,0,0,-0.0598,-0.0586,-0.0474,-0.0465,-0.0454,-0.0325,-0.0304,-0.019,-0.0255,-0.0333,-0.0253,-0.0252,-0.0066,-0.0046,-0.002,0.0128,0.0141,0.0097,0.0104,0.0109,0.0112,0,0,0,0,0,0,0,-0.0606,-0.0592,-0.0469,-0.0471,-0.0459,-0.0402,-0.0386,-0.0282,-0.0206,-0.0326,-0.0317,-0.0293,-0.006,-0.0031,-0.0012,0.0145,0.0097,0.0107,0.0114,0.0118,0.0394,0.0395,0,0,0,0,0,0,-0.0627,-0.06,-0.0475,-0.0463,-0.0522,-0.04,-0.0382,-0.037,-0.021,-0.0184,-0.0293,-0.0289,-0.0051,-0.0025,-0.0001,0.0094,0.0109,0.0119,0.0125,0.0393,0.0394,0.0395,0,0,0,0,0,0,-0.0632,-0.0619,-0.0482,-0.0524,-0.0503,-0.0398,-0.0385,-0.0367,-0.0336,-0.0186,-0.0159,-0.0281,-0.0049,-0.0017,0.0109,0.0106,0.0124,0.0134,0.0393,0.0394,0.0395,0.0269,0,0,0,0,0,0,-0.0638,-0.0622,-0.0624,-0.0527,-0.0501,-0.0428,-0.0384,-0.0364,-0.032,-0.0312,-0.0165,-0.0137,-0.0046,0.0092,0.012,0.0121,0.0143,0.0392,0.0393,0.0394,0.0273,0.0266,0.026,0,0,0,0,0,-0.0645,-0.0646,-0.0626,-0.061,-0.0507,-0.0427,-0.041,-0.0334,-0.0321,-0.0305,-0.0197,-0.0142,0.0119,0.0102,0.0135,0.0139,0.0391,0.0393,0.0394,0.0275,0.0267,0.026,0,0,0,0,0,0,-0.0718,-0.0633,-0.0609,-0.0585,-0.0515,-0.0409,-0.0388,-0.0345,-0.0253,-0.0242,-0.0118,-0.008,0.0018,0.0103,0.0081,0.0223,0.0258,0.0266,0.0156,0.015,0.0144,0.0123,0.0152,0,0,0,0,0,-0.0739,-0.0716,-0.0627,-0.0607,-0.0581,-0.0493,-0.0455,-0.0402,-0.0306,-0.0268,-0.0163,-0.005,0.0048,0.0118,0.0217,0.031,0.037,0.0331,0.0324,0.0318,0.0325,0.0408,0.0409,0.04,0.04,0.04,0,0,-0.0756,-0.071,-0.0695,-0.0621,-0.0566,-0.0519,-0.0469,-0.0413,-0.0367,-0.0245,-0.0155,-0.0069,0.0066,0.0161,0.0212,0.0237,0.0349,0.032,0.0313,0.0324,0.0409,0.041,0.041,0.0401,0.0401,0.04,0,0,-0.0773,-0.075,-0.0732,-0.0682,-0.0602,-0.0545,-0.0536,-0.0435,-0.0389,-0.0292,-0.0204,-0.0114,0.0045,0.0138,0.0205,0.023,0.0303,0.0251,0.022,0.0299,0.03,0.0301,0.0353,0.036,0.0259,0.0259,0.0259,0,-0.0804,-0.0766,-0.0713,-0.0682,-0.0643,-0.0565,-0.0533,-0.0472,-0.0339,-0.0298,-0.0275,-0.0068,0.0034,0.0154,0.0159,0.0214,0.0261,0.023,0.0287,0.029,0.0294,0.0348,0.0357,0.0253,0.0254,0.0254,0.0255,0,-0.0792,-0.0768,-0.0756,-0.0693,-0.065,-0.061,-0.0523,-0.0476,-0.0424,-0.0351,-0.0244,-0.0113,0.001,0.0044,0.0116,0.0193,0.0216,0.0253,0.0294,0.0287,0.0344,0.0356,0.0245,0.0247,0.0248,0.025,0,0,-0.0848,-0.0765,-0.0763,-0.0743,-0.0655,-0.062,-0.0559,-0.0475,-0.044,-0.0334,-0.0274,-0.0127,-0.0078,0.0002,0.0089,0.0163,0.0215,0.0212,0.0219,0.0241,0.0369,0.0381,0.0396,0.0256,0.0258,0.026,0.0388,0,-0.0856,-0.0819,-0.0764,-0.0728,-0.0705,-0.0631,-0.0584,-0.0503,-0.0428,-0.0351,-0.0236,-0.0146,-0.0086,-0.0042,0.0041,0.0186,0.0247,0.0176,0.0395,0.0401,0.0395,0.0411,0.0366,0.0478,0.0401,0.0403,0.0404,0,-0.0858,-0.0835,-0.0809,-0.0757,-0.0742,-0.0711,-0.0644,-0.0586,-0.0466,-0.0409,-0.0308,-0.0217,-0.0082,-0.005,0.0176,0.0126,0.0231,0.0328,0.0336,0.0405,0.0437,0.0483,0.0504,0.0426,0.0424,0.0422,0.0421,0,-0.0925,-0.0868,-0.0857,-0.0835,-0.0762,-0.0747,-0.0709,-0.061,-0.0566,-0.0449,-0.0405,-0.0242,-0.015,0.0003,0.0204,0.019,0.044,0.0452,0.0555,0.0557,0.0594,0.0596,0.0585,0.0585,0.0585,0.0584,0.0584,0,-0.0952,-0.0942,-0.0895,-0.0889,-0.0891,-0.0818,-0.0797,-0.0736,-0.0641,-0.0583,-0.0448,-0.0362,-0.0132,0.004,0.0196,0.0424,0.0439,0.0557,0.06,0.0547,0.0543,0.0566,0.0562,0.0589,0.0588,0.0587,0.0586,0,-0.101,-0.0973,-0.0968,-0.0926,-0.092,-0.0927,-0.0873,-0.0849,-0.0752,-0.0673,-0.0642,-0.043,-0.02,0.0026,0.0302,0.0424,0.0628,0.0694,0.0603,0.0632,0.0684,0.0673,0.0818,0.082,0.0821,0.0822,0.0823,0,-0.1024,-0.103,-0.1025,-0.104,-0.1023,-0.1018,-0.1012,-0.0924,-0.0887,-0.0705,-0.0668,-0.0436,-0.0252,0.0152,0.0408,0.0681,0.0687,0.0774,0.0743,0.0686,0.0713,0.0699,0.0686,0.0736,0.0737,0.0737,0.0737,0,-0.1061,-0.1069,-0.1074,-0.1118,-0.1131,-0.1133,-0.111,-0.1098,-0.0974,-0.0889,-0.0721,-0.056,-0.0156,0.0156,0.0508,0.0657,0.0726,0.0785,0.0789,0.0674,0.0618,0.0641,0.063,0.0739,0.0738,0.0738,0.0738,0.0738,-0.1094,-0.1124,-0.1147,-0.1186,-0.1211,-0.1229,-0.1223,-0.1176,-0.1117,-0.0949,-0.0796,-0.052,-0.0194,0.0313,0.0551,0.0774,0.0783,0.0824,0.0821,0.0818,0.0775,0.0724,0.0855,0.0856,0.0856,0.0857,0.0857,0,-0.1124,-0.1156,-0.1205,-0.1248,-0.1289,-0.1283,-0.1266,-0.122,-0.1149,-0.0969,-0.0798,-0.0446,-0.0083,0.0265,0.0619,0.0817,0.0795,0.0836,0.077,0.0768,0.0767,0.0718,0.0785,0.0786,0.0786,0.0786,0,0,-0.1139,-0.1194,-0.1223,-0.1299,-0.133,-0.1345,-0.1332,-0.1251,-0.1111,-0.0923,-0.0719,-0.0463,-0.0034,0.0183,0.0444,0.0633,0.0639,0.0639,0.0678,0.0568,0.0563,0.0746,0.0668,0,0,0,0,0]}],[{"header":{"parameterUnit":"m.s-1","parameterCategory":2,"la1":30.2991,"la2":30.254,"lo1":-89.0895,"lo2":-89.0444,"dy":0.0017,"dx":0.0017,"nx":28,"ny":28,"refTime":"2025-06-10T21:00:00:Z","depth":"4","parameterNumber":2,"parameterNumberName":"U-component_of_CURRENTS"},"data":[0,0,0,0,0,0,0,0,0,0,0,0,0,0,0,0,0,0,0,0,0,0,0,0,0,0,0,0,0,0,0,0,0,0,0,0,0,0,0,0,0,0,0,0,0,0,0,0,0,0,0,0,0,0,0,0,0,0,-0.1676,-0.1677,0,-0.1767,-0.1768,-0.1769,-0.1801,-0.1801,-0.18,-0.18,-0.1851,-0.1853,-0.1855,0,0,0,0,0,0,0,0,0,0,0,0,0,-0.1592,-0.1593,-0.1676,-0.1677,-0.1678,-0.1767,-0.1768,-0.1769,-0.1801,-0.1801,-0.18,-0.18,-0.185,-0.1853,-0.1855,0,0,0,0,0,0,0,0,0,0,0,0,0,-0.1651,-0.1594,-0.1676,-0.1704,-0.1707,-0.1766,-0.1768,-0.177,-0.1801,-0.1801,-0.18,-0.1799,-0.185,-0.1852,-0.1855,-0.1886,0,0,-0.1863,-0.1864,0,0,0,0,0,0,0,0,-0.1648,-0.1655,-0.1698,-0.1702,-0.1705,-0.1771,-0.1757,-0.1806,-0.1802,-0.1767,-0.18,-0.1799,-0.182,-0.1825,-0.1846,-0.1888,-0.189,-0.1864,-0.1865,-0.1866,-0.1867,0,0,0,0,0,0,0,-0.1644,-0.1651,-0.1713,-0.17,-0.1704,-0.1733,-0.174,-0.1767,-0.1797,-0.177,-0.1772,-0.178,-0.1822,-0.1844,-0.1848,-0.1891,-0.1863,-0.1866,-0.1868,-0.1869,-0.1996,-0.1998,0,0,0,0,0,0,-0.1627,-0.1647,-0.1711,-0.1716,-0.1673,-0.1734,-0.1742,-0.1752,-0.1797,-0.1804,-0.1781,-0.1781,-0.184,-0.1845,-0.185,-0.1923,-0.1866,-0.1869,-0.187,-0.1994,-0.1996,-0.1998,0,0,0,0,0,0,-0.1625,-0.1632,-0.1707,-0.1682,-0.1694,-0.1736,-0.1746,-0.1754,-0.1805,-0.1806,-0.1811,-0.1827,-0.1839,-0.1846,-0.1903,-0.1924,-0.187,-0.1873,-0.1992,-0.1995,-0.1997,-0.2048,0,0,0,0,0,0,-0.1623,-0.1631,-0.1655,-0.1681,-0.1694,-0.1753,-0.1747,-0.1756,-0.1809,-0.1811,-0.1847,-0.1849,-0.1839,-0.1899,-0.1906,-0.1927,-0.1875,-0.199,-0.1993,-0.1996,-0.2044,-0.2052,-0.2059,0,0,0,0,0,-0.1619,-0.1646,-0.1655,-0.1664,-0.1718,-0.1754,-0.1764,-0.1792,-0.1812,-0.1837,-0.187,-0.185,-0.1923,-0.1904,-0.1911,-0.1933,-0.1988,-0.1992,-0.1996,-0.2041,-0.2051,-0.2059,0,0,0,0,0,0,-0.1623,-0.1653,-0.1663,-0.1699,-0.1729,-0.1759,-0.1795,-0.1818,-0.1868,-0.1885,-0.1885,-0.189,-0.1935,-0.1941,-0.1919,-0.198,-0.1948,-0.1954,-0.198,-0.1989,-0.1996,-0.1995,-0.1877,0,0,0,0,0,-0.1634,-0.1665,-0.1689,-0.1723,-0.174,-0.1778,-0.1807,-0.183,-0.1866,-0.189,-0.1908,-0.1935,-0.1955,-0.198,-0.199,-0.2046,-0.2015,-0.2061,-0.2069,-0.2075,-0.208,-0.2055,-0.206,-0.2011,-0.2011,-0.2011,0,0,-0.1644,-0.1668,-0.1685,-0.1727,-0.1758,-0.1799,-0.1795,-0.185,-0.1893,-0.1888,-0.1958,-0.196,-0.1973,-0.2015,-0.2037,-0.2029,-0.2073,-0.208,-0.2085,-0.2087,-0.2059,-0.2064,-0.2068,-0.2014,-0.2013,-0.2013,0,0,-0.1672,-0.1703,-0.1735,-0.1769,-0.1821,-0.1843,-0.1866,-0.1911,-0.194,-0.2006,-0.2,-0.2024,-0.2074,-0.2073,-0.2084,-0.2148,-0.2102,-0.2154,-0.2206,-0.2182,-0.2185,-0.2187,-0.2148,-0.2146,-0.2171,-0.2171,-0.2171,0,-0.1686,-0.173,-0.1751,-0.1796,-0.1833,-0.1867,-0.1914,-0.1954,-0.2013,-0.2034,-0.2035,-0.2089,-0.2096,-0.2136,-0.2156,-0.2161,-0.2138,-0.2168,-0.2188,-0.219,-0.2192,-0.2151,-0.2148,-0.2174,-0.2174,-0.2173,-0.2173,0,-0.1725,-0.1782,-0.1809,-0.1872,-0.1913,-0.1965,-0.2008,-0.2053,-0.2091,-0.2115,-0.216,-0.2168,-0.2193,-0.22,-0.2205,-0.2227,-0.2201,-0.2186,-0.2159,-0.2199,-0.2154,-0.2151,-0.2178,-0.2177,-0.2176,-0.2175,0,0,-0.169,-0.1812,-0.1825,-0.1874,-0.1963,-0.1992,-0.207,-0.2125,-0.2162,-0.221,-0.224,-0.2282,-0.2274,-0.2285,-0.228,-0.2275,-0.2263,-0.2251,-0.2248,-0.22,-0.2201,-0.2062,-0.2044,-0.2251,-0.2251,-0.2251,-0.2162,0,-0.1715,-0.1815,-0.1868,-0.1965,-0.2017,-0.2077,-0.2133,-0.2193,-0.223,-0.226,-0.2278,-0.23,-0.2312,-0.2315,-0.2318,-0.2261,-0.2258,-0.2288,-0.218,-0.2177,-0.2038,-0.2037,-0.2251,-0.2159,-0.2158,-0.2157,-0.2157,0,-0.172,-0.1794,-0.1897,-0.2011,-0.2035,-0.2096,-0.2175,-0.2231,-0.2285,-0.2308,-0.2342,-0.2341,-0.2352,-0.2343,-0.2297,-0.2316,-0.2277,-0.2236,-0.2231,-0.208,-0.2031,-0.2113,-0.2149,-0.215,-0.215,-0.2151,-0.2151,0,-0.1667,-0.1803,-0.1889,-0.1934,-0.2065,-0.2116,-0.2176,-0.2245,-0.2276,-0.2329,-0.2333,-0.2358,-0.2336,-0.2316,-0.2257,-0.2275,-0.2174,-0.2178,-0.2021,-0.201,-0.214,-0.2138,-0.215,-0.215,-0.215,-0.215,-0.215,0,-0.1655,-0.1724,-0.1878,-0.1927,-0.2003,-0.21,-0.2163,-0.222,-0.2278,-0.2279,-0.2348,-0.2319,-0.2327,-0.2276,-0.2246,-0.2103,-0.2165,-0.2017,-0.1974,-0.2164,-0.2166,-0.2136,-0.2136,-0.2147,-0.2147,-0.2148,-0.2149,0,-0.1584,-0.1694,-0.1792,-0.1944,-0.1987,-0.2038,-0.2148,-0.2166,-0.2247,-0.2242,-0.2255,-0.2271,-0.2184,-0.2176,-0.2095,-0.2042,-0.1951,-0.1896,-0.2085,-0.2057,-0.181,-0.1814,-0.1698,-0.1692,-0.1687,-0.1683,-0.168,0,-0.1554,-0.1607,-0.1777,-0.1813,-0.1888,-0.1978,-0.2012,-0.213,-0.2132,-0.2178,-0.2136,-0.21,-0.2087,-0.1858,-0.1882,-0.1798,-0.1792,-0.1751,-0.1804,-0.1791,-0.1762,-0.1774,-0.1784,-0.1672,-0.1671,-0.167,-0.1668,0,-0.1481,-0.1559,-0.1633,-0.1715,-0.1776,-0.1828,-0.1889,-0.1879,-0.1967,-0.2065,-0.1954,-0.1903,-0.1792,-0.1727,-0.1669,-0.1625,-0.178,-0.1701,-0.1711,-0.1761,-0.1758,-0.1737,-0.1753,-0.1652,-0.1654,-0.1656,-0.1657,0,-0.1402,-0.1431,-0.1525,-0.1576,-0.1644,-0.1634,-0.17,-0.1686,-0.1715,-0.1784,-0.1731,-0.1711,-0.1743,-0.1632,-0.1581,-0.1518,-0.1507,-0.1488,-0.151,-0.1529,-0.1518,-0.1493,-0.1252,0,0,0,0,0,-0.1306,-0.132,-0.1363,-0.1406,-0.1463,-0.1496,-0.1579,-0.1641,-0.1733,-0.1607,-0.1672,-0.1571,-0.1478,-0.1477,-0.1371,-0.1499,-0.1513,-0.1375,-0.1505,-0.1558,-0.1578,-0.1582,0,0,0,0,0,0,-0.1235,-0.1282,-0.1312,-0.1243,-0.1228,-0.1264,-0.131,-0.138,-0.1328,-0.1432,-0.1378,-0.1478,-0.1397,-0.1487,-0.133,-0.1333,-0.1387,-0.1393,-0.1389,-0.1547,-0.1565,-0.1581,-0.1592,0,0,0,0,0]},{"header":{"parameterUnit":"m.s-1","parameterCategory":2,"la1":30.2991,"la2":30.254,"lo1":-89.0895,"lo2":-89.0444,"dy":0.0017,"dx":0.0017,"nx":28,"ny":28,"refTime":"2025-06-10T21:00:00:Z","depth":"4","parameterNumber":3,"parameterNumberName":"V-component_of_CURRENTS"},"data":[0,0,0,0,0,0,0,0,0,0,0,0,0,0,0,0,0,0,0,0,0,0,0,0,0,0,0,0,0,0,0,0,0,0,0,0,0,0,0,0,0,0,0,0,0,0,0,0,0,0,0,0,0,0,0,0,0,0,-0.0442,-0.0441,0,-0.0369,-0.0369,-0.0368,-0.0348,-0.0348,-0.0348,-0.0348,-0.0258,-0.0255,-0.0253,0,0,0,0,0,0,0,0,0,0,0,0,0,-0.0494,-0.0494,-0.0442,-0.0441,-0.044,-0.0369,-0.0369,-0.0368,-0.0348,-0.0348,-0.0348,-0.0348,-0.0259,-0.0256,-0.0252,0,0,0,0,0,0,0,0,0,0,0,0,0,-0.0454,-0.0493,-0.0442,-0.0419,-0.0416,-0.037,-0.0369,-0.0368,-0.0348,-0.0348,-0.0348,-0.0348,-0.026,-0.0256,-0.0252,-0.0223,0,0,-0.024,-0.0239,0,0,0,0,0,0,0,0,-0.0456,-0.0452,-0.0424,-0.0421,-0.0417,-0.0366,-0.0353,-0.0317,-0.0347,-0.0376,-0.0348,-0.0349,-0.029,-0.0284,-0.0273,-0.0218,-0.0215,-0.024,-0.0238,-0.0236,-0.0235,0,0,0,0,0,0,0,-0.0459,-0.0455,-0.0416,-0.0423,-0.0419,-0.0389,-0.0384,-0.0347,-0.0334,-0.0374,-0.0372,-0.0359,-0.0289,-0.0277,-0.0271,-0.0213,-0.024,-0.0237,-0.0234,-0.0233,-0.0126,-0.0126,0,0,0,0,0,0,-0.0466,-0.0458,-0.0418,-0.0413,-0.0435,-0.0388,-0.0383,-0.0384,-0.0335,-0.0327,-0.0359,-0.0359,-0.0284,-0.0276,-0.0268,-0.0205,-0.0236,-0.0232,-0.023,-0.0127,-0.0126,-0.0126,0,0,0,0,0,0,-0.0468,-0.0464,-0.0421,-0.0431,-0.0423,-0.0387,-0.0388,-0.0382,-0.0376,-0.0324,-0.0316,-0.0359,-0.0284,-0.0273,-0.0229,-0.0202,-0.0231,-0.0227,-0.0127,-0.0126,-0.0126,-0.0095,0,0,0,0,0,0,-0.047,-0.0466,-0.0477,-0.0432,-0.0423,-0.0398,-0.0387,-0.0381,-0.0366,-0.0365,-0.0321,-0.0312,-0.0283,-0.0235,-0.0225,-0.0197,-0.0224,-0.0128,-0.0127,-0.0126,-0.0097,-0.0093,-0.009,0,0,0,0,0,-0.0472,-0.0484,-0.0479,-0.0474,-0.0438,-0.0398,-0.0391,-0.0367,-0.0366,-0.0363,-0.0326,-0.0314,-0.0222,-0.0231,-0.0219,-0.019,-0.0128,-0.0127,-0.0126,-0.0098,-0.0094,-0.009,0,0,0,0,0,0,-0.0515,-0.0481,-0.0475,-0.0478,-0.0443,-0.0394,-0.039,-0.0372,-0.0342,-0.0343,-0.03,-0.0288,-0.0242,-0.0226,-0.0237,-0.016,-0.0176,-0.0173,-0.0159,-0.0154,-0.0151,-0.0166,-0.0221,0,0,0,0,0,-0.0529,-0.053,-0.0487,-0.0489,-0.0475,-0.0436,-0.042,-0.04,-0.0362,-0.035,-0.0314,-0.0276,-0.0227,-0.0201,-0.0166,-0.0119,-0.0105,-0.0097,-0.0094,-0.0092,-0.0098,-0.0045,-0.0038,-0.0122,-0.0122,-0.0122,0,0,-0.0544,-0.0527,-0.0527,-0.0498,-0.0473,-0.0444,-0.0428,-0.0405,-0.0375,-0.0343,-0.0302,-0.0266,-0.0215,-0.016,-0.0138,-0.0142,-0.006,-0.009,-0.0088,-0.0095,-0.0043,-0.0035,-0.0028,-0.0121,-0.0121,-0.0121,0,0,-0.0558,-0.0561,-0.0557,-0.0531,-0.0493,-0.0463,-0.0458,-0.041,-0.0387,-0.034,-0.0304,-0.0249,-0.0193,-0.0134,-0.01,-0.006,-0.0049,-0.0061,-0.0044,0.0007,0.0015,0.0021,0.0052,0.0061,-0.0053,-0.0053,-0.0053,0,-0.058,-0.0569,-0.0549,-0.0531,-0.051,-0.0472,-0.0452,-0.0415,-0.0357,-0.0331,-0.033,-0.0223,-0.0173,-0.0084,-0.0065,-0.0048,-0.0037,-0.0057,0.0013,0.0019,0.0026,0.0056,0.0066,-0.0051,-0.0052,-0.0052,-0.0052,0,-0.0574,-0.057,-0.0565,-0.0531,-0.0507,-0.0486,-0.043,-0.0403,-0.0374,-0.0331,-0.026,-0.0188,-0.0127,-0.0092,-0.0059,0.0017,0.0004,0.0008,0.0005,0.0037,0.0065,0.0075,-0.0049,-0.005,-0.005,-0.0051,0,0,-0.0613,-0.0571,-0.0572,-0.0561,-0.0508,-0.0489,-0.0439,-0.038,-0.0355,-0.0289,-0.0245,-0.0132,-0.0109,-0.0069,-0.0016,0.0043,0.0119,0.0042,0.0044,0.0075,0.0211,0.0187,0.0195,0.013,0.0131,0.0133,0.0213,0,-0.0616,-0.0598,-0.0566,-0.0544,-0.053,-0.0483,-0.0443,-0.0387,-0.0338,-0.0288,-0.0196,-0.0143,-0.0093,-0.0069,0.0007,0.0082,0.0144,0.0095,0.0172,0.0174,0.0153,0.0207,0.0139,0.0221,0.0223,0.0224,0.0226,0,-0.0617,-0.0608,-0.0596,-0.0561,-0.0552,-0.0534,-0.0484,-0.044,-0.0352,-0.0315,-0.0238,-0.0184,-0.0071,-0.0052,0.0108,0.0066,0.0139,0.0199,0.0203,0.0174,0.0169,0.0182,0.0243,0.0242,0.0241,0.0239,0.0238,0,-0.066,-0.0628,-0.0627,-0.0614,-0.0567,-0.0559,-0.0533,-0.046,-0.0429,-0.0343,-0.032,-0.0192,-0.0135,-0.0023,0.0115,0.0104,0.0271,0.0272,0.0323,0.0321,0.0302,0.0294,0.0381,0.038,0.038,0.038,0.038,0,-0.0673,-0.0673,-0.0658,-0.066,-0.0668,-0.0615,-0.0608,-0.056,-0.0495,-0.0461,-0.0351,-0.0296,-0.0127,-0.001,0.0105,0.0246,0.0269,0.0333,0.0348,0.0312,0.0304,0.031,0.03,0.0383,0.0382,0.0382,0.0381,0,-0.0711,-0.0697,-0.0707,-0.069,-0.0693,-0.0705,-0.0679,-0.0666,-0.0596,-0.0551,-0.053,-0.0369,-0.0215,-0.0047,0.0145,0.0227,0.0363,0.0408,0.0351,0.0361,0.0375,0.0367,0.046,0.046,0.046,0.046,0.046,0,-0.0719,-0.0733,-0.0759,-0.0785,-0.0785,-0.0795,-0.0801,-0.0736,-0.0716,-0.0591,-0.0573,-0.0413,-0.0295,-0.0039,0.0139,0.0352,0.0383,0.0439,0.042,0.0382,0.0388,0.0379,0.0371,0.046,0.046,0.046,0.046,0,-0.0744,-0.0772,-0.0789,-0.0854,-0.0885,-0.0898,-0.0898,-0.0887,-0.0798,-0.0742,-0.0606,-0.0448,-0.0265,-0.0052,0.0122,0.0276,0.0392,0.0439,0.044,0.0423,0.0383,0.0387,0.0379,0.046,0.046,0.046,0.046,0,-0.0775,-0.081,-0.0857,-0.0904,-0.0957,-0.0979,-0.0967,-0.0919,-0.0879,-0.0736,-0.0693,-0.047,-0.0331,-0.009,0.0072,0.0221,0.0249,0.0275,0.0285,0.0287,0.0215,0.0138,0.0162,0,0,0,0,0,-0.079,-0.0835,-0.0895,-0.0947,-0.1004,-0.1024,-0.1016,-0.0985,-0.0908,-0.0832,-0.0756,-0.0583,-0.0307,-0.0169,-0.0027,0.0058,0.0264,0.0226,0.0294,0.0461,0.046,0.0404,0,0,0,0,0,0,-0.0803,-0.0868,-0.0899,-0.0973,-0.1016,-0.106,-0.1056,-0.1001,-0.0941,-0.0845,-0.0695,-0.0583,-0.0313,-0.0401,-0.0038,0.0015,0.0069,0.037,0.0372,0.0461,0.0461,0.046,0.0402,0,0,0,0,0]}]]